Theta_e
335 339 344 341 345 346 345 345 345 347 347 346 346 346 346 344 342 342 338 337 337 336 336 335 336 336 335 334 333 331 332 333 333 333 333 334 333 333 333 332 333 329 333
335 337 343 345 346 345 345 345 346 348 347 347 346 346 346 344 341 340 338 337 336 335 335 335 336 336 335 335 334 332 330 329 328 329 330 333 332 331 331 331 331 328 331
331 335 340 345 346 344 343 344 347 346 346 346 346 345 343 341 339 338 338 337 336 335 335 334 335 335 335 334 334 332 331 330 330 331 334 325 326 332 331 331 330 330 331
330 332 342 343 345 343 342 343 344 344 345 345 345 344 343 342 339 338 337 335 335 334 334 334 334 333 333 332 332 331 330 330 331 333 325 324 328 332 332 331 330 331 331
327 337 341 342 344 342 341 340 341 342 342 341 341 341 340 338 339 339 339 335 334 334 335 334 333 332 331 330 330 329 329 328 331 329 321 320 322 330 334 332 332 332 331
328 340 341 343 343 341 340 338 338 338 338 338 338 338 336 334 334 334 334 336 338 335 334 332 330 330 332 333 333 331 330 329 331 319 319 324 323 329 334 335 332 332 334
331 338 339 341 342 341 339 338 338 337 337 338 337 336 335 334 334 333 332 332 331 330 330 329 330 331 332 333 332 332 331 331 327 322 323 323 321 327 332 334 335 333 332
331 338 338 335 339 340 340 339 339 337 336 337 338 337 335 335 335 333 332 331 331 330 330 330 330 331 332 332 332 331 331 329 326 326 324 325 328 328 331 333 333 334 334
333 333 336 337 335 335 336 336 337 337 337 336 336 336 336 336 334 332 332 331 330 330 330 330 331 331 332 333 333 332 330 328 324 324 325 323 331 329 331 332 334 334 335
333 335 334 335 335 334 332 331 332 334 334 334 332 330 330 331 331 330 328 330 330 331 331 332 332 332 333 333 333 331 328 327 323 322 321 322 331 329 331 332 332 332 333
326 331 334 332 334 334 332 328 328 330 330 330 328 326 325 327 327 325 326 329 330 330 330 331 333 333 332 330 330 329 327 323 321 321 321 327 332 328 331 332 332 333 332
322 324 327 331 333 328 329 327 329 331 330 331 332 328 330 330 329 328 324 327 329 329 331 333 333 331 327 325 325 326 324 323 322 322 322 328 331 330 332 332 333 333 334
324 324 326 329 329 329 327 327 330 330 332 331 331 331 330 330 328 328 329 327 327 321 327 329 329 327 327 326 326 325 325 324 323 323 324 328 332 333 333 334 335 335 335
326 327 326 328 329 330 330 329 330 330 330 329 330 331 328 328 328 328 327 327 327 328 327 328 328 328 328 330 329 326 326 325 324 324 324 323 330 334 335 335 335 336 336
325 327 328 329 330 331 331 330 330 329 329 329 329 330 328 327 327 329 328 329 330 331 330 330 330 330 331 330 330 330 330 329 329 328 325 322 324 332 335 336 336 336 337
327 327 328 330 330 330 329 330 329 329 329 329 328 328 330 329 330 330 330 331 331 332 332 331 330 329 329 329 329 330 329 328 330 331 330 329 325 328 333 335 336 336 336
328 330 330 330 330 329 329 329 328 329 329 328 330 331 332 333 332 332 332 332 332 331 331 330 330 330 328 329 326 326 325 328 327 328 329 326 325 323 325 332 335 335 335
328 329 330 332 330 328 327 327 328 329 329 330 331 333 334 334 334 332 332 333 332 330 329 329 326 324 321 320 321 320 320 321 321 321 321 322 321 322 323 327 330 332 331
331 331 329 329 328 328 327 328 329 330 331 332 327 325 323 321 322 322 326 323 321 321 321 320 318 317 315 316 317 316 316 317 317 320 319 319 321 322 321 323 322 322 325
330 330 331 330 329 328 329 329 330 330 319 316 315 315 316 316 316 316 316 316 316 316 315 315 314 315 314 314 315 315 313 313 315 314 315 316 317 318 319 320 320 320 321
328 329 329 330 331 330 329 329 329 319 313 312 312 313 312 312 311 311 313 313 313 313 312 312 311 311 310 311 309 309 309 311 311 310 311 312 314 315 317 317 317 317 318
326 326 326 326 328 330 330 326 318 312 310 310 309 308 307 307 308 308 308 307 307 308 307 306 306 306 309 309 305 305 301 307 309 308 309 308 310 313 313 314 315 316 316
308 308 310 310 310 313 321 315 311 311 309 307 305 302 300 301 301 302 302 303 304 304 302 303 303 303 302 306 307 306 300 297 302 305 305 307 305 309 308 309 313 313 314
302 302 302 302 303 306 310 309 307 304 302 302 301 300 297 297 297 298 298 298 298 299 298 298 299 299 299 298 301 302 301 301 297 295 302 300 301 300 303 303 306 308 311
298 297 297 297 297 298 301 303 301 298 297 297 297 295 295 295 294 295 296 295 295 295 295 297 296 295 295 296 295 295 297 296 298 292 290 292 295 297 299 299 298 300 303
295 294 294 293 293 294 294 294 293 293 292 292 292 292 292 292 292 292 293 293 293 293 293 294 294 293 292 293 293 293 292 292 291 291 289 288 289 291 293 295 297 300 302
Wind_Speed
10 10 10 11 10 12 11 9 9 7 11 11 10 13 15 15 15 14 14 13 12 12 13 13 13 13 12 11 13 13 12 11 8 8 11 14 13 13 13 14 14 8 12
15 11 9 11 10 13 11 11 13 13 14 12 13 13 14 16 14 14 13 12 11 11 12 12 13 13 12 12 11 11 11 8 6 4 3 12 11 10 11 10 9 7 9
14 11 8 12 14 14 12 11 12 14 14 12 15 17 16 14 13 13 13 12 11 12 11 11 12 12 12 11 10 9 8 7 8 11 11 3 6 9 9 8 8 8 8
14 10 10 12 14 14 12 11 12 13 15 16 16 16 16 14 13 13 12 11 11 11 11 10 10 10 9 9 8 9 9 9 11 11 6 7 6 8 7 7 7 7 9
11 12 12 12 14 13 12 12 12 12 13 14 15 15 13 12 12 11 11 9 10 9 9 9 9 9 9 9 9 9 8 9 10 10 2 4 5 10 10 8 8 8 7
12 14 11 13 13 13 12 12 12 12 12 12 13 13 13 13 12 11 11 11 11 9 8 8 7 7 7 7 8 8 8 10 11 6 5 1 5 7 8 9 8 7 6
14 12 10 12 12 11 11 11 11 11 11 11 12 12 12 12 11 10 9 9 8 7 7 6 6 5 5 5 6 6 6 8 7 6 3 3 4 4 6 9 9 8 9
12 12 10 9 10 10 10 10 10 10 10 10 10 10 9 9 9 8 7 7 6 6 5 5 5 4 5 5 6 6 7 10 8 6 1 2 5 2 7 10 11 11 10
12 10 9 8 8 9 9 9 9 9 8 8 8 8 7 7 6 5 5 5 4 4 4 4 5 6 6 7 6 7 9 11 7 5 3 3 4 4 8 10 12 12 13
12 10 10 10 8 7 6 7 8 8 8 7 7 5 4 5 5 4 4 3 2 2 3 4 4 5 7 8 9 9 9 9 7 7 4 2 3 4 8 10 11 12 12
4 9 11 7 6 7 9 6 6 7 6 6 5 5 5 4 5 6 5 3 2 2 4 5 6 7 9 10 11 11 9 4 6 4 1 5 2 2 8 10 11 12 12
7 7 6 8 6 6 8 6 6 6 5 6 6 5 4 1 4 1 3 6 6 7 8 8 8 9 7 4 3 9 4 6 4 4 2 7 6 5 9 11 12 13 14
9 5 7 5 6 6 6 5 3 3 3 3 3 2 2 2 2 3 2 3 3 5 4 5 5 4 4 3 4 4 5 5 3 4 5 7 8 8 11 14 15 16 16
8 8 8 7 6 3 4 3 4 3 2 2 3 3 1 1 2 3 2 2 2 3 3 3 2 4 5 5 5 6 6 5 3 3 5 9 9 11 13 15 16 17 18
7 7 3 4 8 6 3 4 3 4 3 2 3 3 1 2 1 2 3 2 3 2 2 3 4 4 4 6 5 5 6 5 6 3 3 10 9 12 15 17 17 17 18
7 7 5 5 6 7 5 3 3 1 3 3 1 2 4 1 2 2 3 4 4 3 4 4 5 4 5 5 5 6 6 5 6 8 5 5 10 10 13 16 18 17 17
9 11 11 9 6 6 5 4 2 3 2 2 3 4 2 2 2 3 3 3 4 4 5 5 5 5 5 6 7 6 5 6 6 7 6 4 5 8 9 13 13 14 14
7 10 10 7 7 6 6 5 4 4 4 3 2 4 7 8 7 5 4 4 4 4 3 3 4 6 5 5 5 5 5 5 6 7 6 5 4 4 5 7 8 9 11
11 8 8 7 6 7 5 5 5 5 3 7 7 7 10 9 9 6 4 5 6 4 5 5 5 4 4 5 6 5 7 7 6 5 6 6 5 4 4 6 8 4 9
8 8 9 8 8 7 5 4 4 9 7 8 7 8 11 8 8 6 5 6 5 4 5 5 5 5 4 4 6 6 8 7 6 4 4 6 6 6 4 5 4 4 7
6 6 5 6 6 4 3 4 2 6 6 7 8 10 9 8 7 8 5 5 5 6 7 8 5 6 4 6 3 6 4 6 4 6 8 6 6 6 6 6 4 3 4
9 10 11 11 11 8 4 4 6 5 6 7 8 9 9 10 10 9 8 7 7 6 8 8 8 4 3 7 4 4 5 5 7 13 6 8 7 5 6 7 7 7 6
15 15 13 14 13 12 8 9 9 7 5 7 7 8 9 11 11 12 10 10 8 8 7 7 7 8 5 4 9 4 5 4 10 3 10 5 12 8 8 11 9 9 8
12 13 14 13 13 11 11 11 13 9 8 8 7 8 8 11 11 11 9 10 9 7 9 7 8 8 6 7 5 9 4 4 3 7 4 13 9 13 11 11 9 11 10
11 11 11 13 14 14 14 13 11 12 8 7 7 9 9 8 10 10 9 9 8 7 8 7 7 8 6 6 5 7 4 6 5 4 9 8 9 9 10 10 12 10 11
11 12 12 14 15 14 15 14 15 14 11 9 10 7 7 7 8 11 10 9 7 6 8 6 7 11 9 7 6 6 6 4 8 6 9 13 12 5 12 8 9 8 10
Wind_Direction
136 131 136 137 129 108 91 70 47 75 143 130 115 119 110 99 92 87 87 82 78 78 74 71 65 62 62 68 62 61 59 59 57 40 58 68 56 53 45 42 38 30 34
122 136 135 137 131 106 92 73 63 80 107 121 119 110 106 95 90 86 83 83 78 76 73 69 63 59 59 64 63 56 52 44 16 354 11 85 66 57 57 49 50 41 37
121 121 131 123 114 105 94 76 64 73 87 103 105 101 95 90 86 81 77 75 77 71 66 63 60 56 55 55 54 48 41 20 351 331 324 125 91 55 50 44 37 33 20
115 142 119 115 113 104 94 82 74 70 76 86 87 84 81 81 83 80 78 79 72 74 71 64 56 51 49 46 41 33 20 355 332 324 312 11 73 54 30 21 26 21 9
133 112 117 115 109 105 96 85 79 79 81 81 80 82 83 81 80 71 65 78 88 73 65 59 50 44 37 33 29 21 5 341 325 311 66 41 353 27 4 5 357 356 352
116 106 113 119 111 108 102 96 92 84 83 87 92 89 87 83 78 71 65 65 64 70 63 58 52 49 43 32 24 19 4 337 322 284 40 43 57 28 355 342 345 336 320
106 114 121 117 115 111 106 101 97 94 89 87 94 92 94 93 87 79 71 68 69 73 74 71 62 46 30 20 13 2 348 329 317 317 44 62 81 23 338 333 335 333 323
120 127 130 117 114 109 101 99 99 101 102 102 96 100 98 94 88 82 79 73 66 58 49 41 36 20 359 352 340 332 323 315 318 305 31 116 94 359 330 322 323 323 323
127 125 132 132 113 103 103 103 102 102 100 93 91 93 96 97 99 98 81 72 64 46 21 5 354 344 338 328 311 300 301 301 307 299 286 129 141 5 329 318 318 322 325
131 149 154 140 154 141 130 110 108 109 106 102 103 114 138 155 151 152 137 101 60 17 343 336 327 317 301 284 273 269 268 276 274 276 274 133 62 354 329 323 316 315 314
146 150 147 127 151 156 127 125 122 122 127 135 141 186 209 214 191 167 141 158 229 268 276 276 273 271 270 272 258 256 265 273 273 287 295 165 186 315 309 311 312 312 314
147 138 124 147 172 128 125 156 167 165 183 190 187 195 214 66 69 29 191 207 231 238 251 250 254 259 273 273 303 248 269 259 309 286 285 198 222 252 279 285 291 296 302
156 141 143 132 129 136 122 180 165 163 194 165 150 176 85 25 174 229 206 229 238 234 269 215 249 241 266 294 287 292 299 311 296 294 297 218 245 256 280 285 289 291 293
141 145 147 153 137 153 140 187 164 153 149 162 162 120 76 239 218 284 295 317 248 206 247 257 261 269 275 269 265 266 265 269 272 278 281 274 243 256 269 283 288 289 291
136 135 161 148 152 165 182 202 155 134 132 208 107 148 230 258 187 266 284 269 258 304 321 288 297 291 307 296 307 306 298 280 272 272 274 280 251 254 266 276 284 291 293
148 140 188 239 183 157 168 172 138 181 154 107 143 180 175 219 268 322 336 333 354 345 311 330 318 317 305 303 299 290 284 296 292 290 280 276 271 262 263 270 279 293 305
155 165 181 203 190 151 152 151 159 157 80 148 176 166 204 307 323 343 337 332 349 343 3 340 330 330 340 340 314 288 283 282 289 281 283 306 300 292 265 267 282 290 299
178 175 175 176 155 163 165 167 171 154 175 206 92 41 37 28 17 3 5 32 18 5 338 345 342 332 314 302 302 312 319 319 311 308 299 296 289 298 323 322 295 302 312
179 154 151 149 165 170 182 164 174 172 95 59 52 47 41 34 21 13 11 25 23 10 9 15 3 357 340 331 322 337 324 307 294 305 304 323 341 355 337 340 20 326 313
142 147 156 153 173 172 164 178 162 67 63 58 51 45 41 29 13 11 18 30 20 28 26 13 10 344 337 349 342 328 311 295 285 327 358 352 344 334 342 338 331 313 310
119 118 138 148 167 155 161 169 118 82 68 65 57 48 43 31 29 29 21 16 12 44 33 20 1 351 340 346 333 318 284 299 342 14 351 333 346 336 343 341 325 318 309
53 51 51 50 46 44 55 67 105 100 75 84 72 56 41 36 31 42 32 18 17 28 39 22 14 353 335 349 351 302 333 328 3 340 340 335 327 342 339 336 332 327 310
46 44 48 43 39 40 57 92 94 93 81 71 65 61 33 42 36 41 31 48 21 34 26 16 14 14 344 346 352 11 350 328 331 327 324 345 343 347 346 332 326 325 309
52 52 51 47 44 44 58 71 76 77 77 73 67 61 48 41 33 46 27 45 36 32 24 15 15 16 355 8 344 13 353 321 319 314 359 326 346 342 332 324 320 321 318
64 62 64 61 54 52 63 78 83 79 68 60 54 53 40 30 35 30 26 37 33 33 27 12 18 23 18 26 12 344 337 328 43 320 303 334 316 328 317 337 316 308 312
84 76 71 71 61 53 58 58 72 75 70 69 47 37 24 15 15 20 18 29 33 26 24 12 23 35 22 16 8 12 5 355 341 342 321 322 320 333 309 320 311 331 352